SR9WXM Weather Reports


time (UTC)temp
C
wind
direction
speed
KPH
gust
KPH
rain 1hr
cm
rain 24hr
cm
rain mn
cm
humidity
%
barometer
mb
20260905195619 11 246 11.3 20.9 0.00 0.00 0.00 100
20260905195417 11 209 9.7 16.1 0.00 0.00 0.00 100
20260905195217 12 219 12.9 17.7 0.00 0.00 0.00 100
20260905195017 12 214 12.9 22.5 0.00 0.00 0.00 100
20260905194817 12 212 14.5 29.0 0.00 0.00 0.00 100
20260905194617 12 247 14.5 29.0 0.00 0.00 0.00 100
20260905194417 12 259 12.9 24.1 0.00 0.00 0.00 100
20260905194217 12 192 14.5 25.7 0.00 0.00 0.00 100
20260905194017 12 215 16.1 32.2 0.00 0.00 0.00 100
20260905193817 12 259 17.7 27.4 0.00 0.00 0.00 100
20260905193617 12 255 16.1 40.2 0.00 0.00 0.00 100
20260905193415 12 228 14.5 25.7 0.00 0.00 0.00 100
20260905193215 12 234 12.9 22.5 0.00 0.00 0.00 100
20260905193015 12 242 14.5 22.5 0.00 0.00 0.00 100
20260905192815 12 220 17.7 30.6 0.00 0.00 0.00 100
20260905192615 12 224 16.1 30.6 0.00 0.00 0.00 100
20260905192413 12 245 16.1 27.4 0.00 0.00 0.00 100
20260905192213 12 253 16.1 29.0 0.00 0.00 0.00 100
20260905192013 12 249 17.7 29.0 0.00 0.00 0.00 100
20260905191813 12 244 14.5 22.5 0.00 0.00 0.00 100
20260905191613 12 198 14.5 24.1 0.00 0.00 0.00 100
20260905191411 12 195 12.9 24.1 0.00 0.00 0.00 100
20260905191211 12 232 14.5 27.4 0.00 0.00 0.00 100
20260905191011 12 247 12.9 22.5 0.00 0.00 0.00 100
20260905190811 12 216 16.1 29.0 0.00 0.00 0.00 100
20260905190611 12 166 17.7 30.6 0.00 0.00 0.00 100
20260905190411 12 180 16.1 20.9 0.00 0.00 0.00 100
20260905190211 12 175 17.7 33.8 0.00 0.00 0.00 100
20260905190011 12 194 14.5 27.4 0.00 0.00 0.00 100
20260905185811 12 194 14.5 24.1 0.00 0.00 0.00 100
20260905185611 12 182 16.1 37.0 0.00 0.00 0.00 100
20260905185409 12 189 17.7 27.4 0.00 0.00 0.00 100
20260905185209 12 206 16.1 27.4 0.00 0.00 0.00 100
20260905185009 12 195 14.5 22.5 0.00 0.00 0.00 100
20260905184809 12 193 14.5 25.7 0.00 0.00 0.00 100
20260905184609 12 192 12.9 20.9 0.00 0.00 0.00 100
20260905184408 12 199 11.3 20.9 0.00 0.00 0.00 100
20260905184208 12 153 16.1 22.5 0.00 0.00 0.00 100
20260905184008 12 140 12.9 20.9 0.00 0.00 0.00 100
20260905183809 12 187 12.9 22.5 0.00 0.00 0.00 100
20260905183609 12 214 14.5 25.7 0.00 0.00 0.00 100
20260905183407 12 248 14.5 25.7 0.00 0.00 0.00 100
20260905183207 12 142 12.9 24.1 0.00 0.00 0.00 100
20260905183007 12 123 12.9 27.4 0.00 0.00 0.00 100
20260905182807 12 297 12.9 27.4 0.00 0.00 0.00 100
20260905182607 12 138 11.3 24.1 0.00 0.00 0.00 100
20260905182407 12 174 12.9 24.1 0.00 0.00 0.00 100
20260905182209 12 147 12.9 17.7 0.00 0.00 0.00 100
20260905182007 12 160 16.1 25.7 0.00 0.00 0.00 100
20260905181759 12 197 16.1 27.4 0.00 0.00 0.00 100
20260905181559 12 187 16.1 27.4 0.00 0.00 0.00 100
20260905181358 12 151 16.1 25.7 0.00 0.00 0.00 100
20260905181158 12 178 16.1 33.8 0.00 0.00 0.00 100
20260905180958 12 212 16.1 33.8 0.00 0.00 0.00 100
20260905180758 12 184 16.1 22.5 0.00 0.00 0.00 100
20260905180558 12 156 16.1 27.4 0.00 0.00 0.00 100
20260905180358 12 195 14.5 27.4 0.00 0.00 0.00 100
20260905180157 12 169 16.1 25.7 0.00 0.00 0.00 100
20260905175957 12 138 17.7 25.7 0.00 0.00 0.00 100
20260905175757 12 171 16.1 22.5 0.00 0.00 0.00 100
20260905175557 12 228 12.9 22.5 0.00 0.00 0.00 100
20260905175355 12 176 14.5 22.5 0.00 0.00 0.00 100
20260905175155 12 174 16.1 24.1 0.00 0.00 0.00 100
20260905174955 12 152 16.1 25.7 0.00 0.00 0.00 100
20260905174755 12 149 16.1 25.7 0.00 0.00 0.00 100
20260905174600 12 165 19.3 25.7 0.00 0.00 0.00 100
20260905174355 12 201 16.1 25.7 0.00 0.00 0.00 100
20260905174155 12 202 16.1 25.7 0.00 0.00 0.00 100
20260905173955 12 244 16.1 25.7 0.00 0.00 0.00 100
20260905173755 12 63 14.5 27.4 0.00 0.00 0.00 100
20260905173555 12 153 12.9 27.4 0.00 0.00 0.00 100
20260905173353 12 193 14.5 20.9 0.00 0.00 0.00 100
20260905173153 12 180 17.7 29.0 0.00 0.00 0.00 100
20260905172953 12 165 16.1 24.1 0.00 0.00 0.00 100
20260905172753 12 191 16.1 24.1 0.00 0.00 0.00 100
20260905172553 12 178 17.7 25.7 0.00 0.00 0.00 100
20260905172353 12 173 16.1 22.5 0.00 0.00 0.00 100
20260905172153 12 173 19.3 25.7 0.00 0.00 0.00 100
20260905171952 12 170 19.3 25.7 0.00 0.00 0.00 100
20260905171752 12 167 19.3 32.2 0.00 0.00 0.00 100
20260905171552 12 167 16.1 32.2 0.00 0.00 0.00 100
20260905171350 12 164 16.1 24.1 0.00 0.00 0.00 100
20260905171150 12 135 16.1 27.4 0.00 0.00 0.00 100
20260905170950 12 144 16.1 27.4 0.00 0.00 0.00 100
20260905170750 12 179 14.5 24.1 0.00 0.00 0.00 100
20260905170550 12 184 19.3 29.0 0.00 0.00 0.00 100
20260905170351 12 165 17.7 27.4 0.00 0.00 0.00 100
20260905170151 12 202 19.3 35.4 0.00 0.00 0.00 100
20260905165951 13 190 14.5 35.4 0.00 0.00 0.00 100
20260905165750 13 175 14.5 24.1 0.00 0.00 0.00 100
20260905165550 13 178 16.1 25.7 0.00 0.00 0.00 100
20260905165348 13 211 16.1 29.0 0.00 0.00 0.00 100
20260905165148 13 191 17.7 29.0 0.00 0.00 0.00 100
20260905164948 13 205 20.9 33.8 0.00 0.00 0.00 100
20260905164748 13 193 16.1 29.0 0.00 0.00 0.00 100
20260905164548 13 175 20.9 33.8 0.00 0.00 0.00 100
20260905164348 13 178 22.5 33.8 0.00 0.00 0.00 100
20260905164148 13 164 19.3 32.2 0.00 0.00 0.00 100
20260905163948 13 159 20.9 32.2 0.00 0.00 0.00 100
20260905163747 13 170 22.5 35.4 0.00 0.00 0.00 100
20260905163547 13 182 22.5 35.4 0.00 0.00 0.00 100
20260905163345 13 153 20.9 32.2 0.00 0.00 0.00 100
20260905163146 13 146 22.5 43.5 0.00 0.00 0.00 100
20260905162946 13 182 27.4 43.5 0.00 0.00 0.00 100
20260905162746 13 173 19.3 35.4 0.00 0.00 0.00 100
20260905162546 13 151 17.7 27.4 0.00 0.00 0.00 100
20260905162346 14 170 19.3 32.2 0.00 0.00 0.00 100
20260905162146 14 134 19.3 29.0 0.00 0.00 0.00 100
20260905161946 14 159 24.1 40.2 0.00 0.00 0.00 100
20260905161746 14 169 22.5 30.6 0.00 0.00 0.00 100
20260905161545 14 171 22.5 38.6 0.00 0.00 0.00 100
20260905161343 14 161 20.9 30.6 0.00 0.00 0.00 100
20260905161143 14 169 19.3 25.7 0.00 0.00 0.00 100
20260905160943 14 196 19.3 25.7 0.00 0.00 0.00 100
20260905160743 14 162 16.1 24.1 0.00 0.00 0.00 100
20260905160543 14 151 14.5 24.1 0.00 0.00 0.00 100
20260905160343 14 161 17.7 29.0 0.00 0.00 0.00 100
20260905160143 14 174 14.5 29.0 0.00 0.00 0.00 100
20260905155943 14 180 16.1 25.7 0.00 0.00 0.00 100
20260905155743 14 137 17.7 25.7 0.00 0.00 0.00 100
20260905155543 14 158 19.3 38.6 0.00 0.00 0.00 100
20260905155341 14 162 22.5 38.6 0.00 0.00 0.00 100
20260905155141 14 195 17.7 29.0 0.00 0.00 0.00 100
20260905154941 14 167 16.1 27.4 0.00 0.00 0.00 100
20260905154741 14 139 19.3 29.0 0.00 0.00 0.00 100
20260905154541 14 147 17.7 29.0 0.00 0.00 0.00 100
20260905154332 14 180 20.9 32.2 0.00 0.00 0.00 100
20260905154132 14 227 20.9 32.2 0.00 0.00 0.00 100
20260905153932 14 187 20.9 32.2 0.00 0.00 0.00 100
20260905153732 15 170 22.5 27.4 0.00 0.00 0.00 100
20260905153532 15 149 19.3 35.4 0.00 0.00 0.00 100
20260905153330 15 144 19.3 35.4 0.00 0.00 0.00 100
20260905153130 15 167 19.3 29.0 0.00 0.00 0.00 100
20260905152930 15 154 17.7 32.2 0.00 0.00 0.00 100
20260905152730 15 143 19.3 32.2 0.00 0.00 0.00 100
20260905152530 15 147 20.9 30.6 0.00 0.00 0.00 100
20260905152330 15 135 19.3 30.6 0.00 0.00 0.00 100
20260905152130 15 187 16.1 29.0 0.00 0.00 0.00 100
20260905151930 15 150 12.9 29.0 0.00 0.00 0.00 100
20260905151730 15 125 16.1 25.7 0.00 0.00 0.00 100
20260905151530 15 157 16.1 29.0 0.00 0.00 0.00 100
20260905151328 15 157 14.5 24.1 0.00 0.00 0.00 100
20260905151126 15 153 14.5 25.7 0.00 0.00 0.00 100
20260905150926 15 163 16.1 29.0 0.00 0.00 0.00 100
20260905150726 15 182 22.5 33.8 0.00 0.00 0.00 100
20260905150526 15 140 17.7 32.2 0.00 0.00 0.00 100
20260905150326 15 177 17.7 24.1 0.00 0.00 0.00 100
20260905150126 15 157 19.3 38.6 0.00 0.00 0.00 100
20260905145926 15 174 22.5 38.6 0.00 0.00 0.00 100
20260905145726 15 178 19.3 32.2 0.00 0.00 0.00 100
20260905145526 15 151 16.1 32.2 0.00 0.00 0.00 100
20260905145324 15 127 16.1 25.7 0.00 0.00 0.00 100
20260905145124 15 143 16.1 20.9 0.00 0.00 0.00 100
20260905144924 15 147 12.9 20.9 0.00 0.00 0.00 100
20260905144724 15 157 16.1 33.8 0.00 0.00 0.00 100
20260905144524 15 188 19.3 33.8 0.00 0.00 0.00 100
20260905144324 15 163 16.1 32.2 0.00 0.00 0.00 100
20260905144124 15 173 17.7 32.2 0.00 0.00 0.00 100
20260905143923 15 146 16.1 25.7 0.00 0.00 0.00 100
20260905143723 15 130 14.5 25.7 0.00 0.00 0.00 100
20260905143523 15 124 17.7 27.4 0.00 0.00 0.00 100
20260905143321 15 141 17.7 27.4 0.00 0.00 0.00 100
20260905143121 15 151 17.7 27.4 0.00 0.00 0.00 100
20260905142921 15 130 19.3 25.7 0.00 0.00 0.00 100
20260905142721 14 123 16.1 24.1 0.00 0.00 0.00 100
20260905142522 14 161 14.5 27.4 0.00 0.00 0.00 100
20260905142322 14 159 14.5 24.1 0.00 0.00 0.00 100
20260905142122 14 139 16.1 25.7 0.00 0.00 0.00 100
20260905141921 13 174 19.3 25.7 0.00 0.00 0.00 100
20260905141721 13 162 17.7 25.7 0.00 0.00 0.00 100
20260905141521 13 139 17.7 32.2 0.00 0.00 0.00 100
20260905141319 13 160 19.3 32.2 0.00 0.00 0.00 100
20260905141119 13 159 19.3 30.6 0.00 0.00 0.00 100
20260905140919 14 156 17.7 30.6 0.00 0.00 0.00 100
20260905140719 14 171 16.1 24.1 0.00 0.00 0.00 100
20260905140519 15 184 17.7 29.0 0.00 0.00 0.00 100
20260905140319 15 175 16.1 27.4 0.00 0.00 0.00 100
20260905140119 15 160 16.1 25.7 0.00 0.00 0.00 100
20260905135919 15 174 20.9 32.2 0.00 0.00 0.00 100
20260905135718 15 183 14.5 32.2 0.00 0.00 0.00 100
20260905135518 15 160 12.9 24.1 0.00 0.00 0.00 100
20260905135317 15 182 11.3 24.1 0.00 0.00 0.00 100
20260905135117 14 143 11.3 29.0 0.00 0.00 0.00 100
20260905134917 14 154 14.5 29.0 0.00 0.00 0.00 100
20260905134717 14 166 16.1 29.0 0.00 0.00 0.00 100
20260905134517 13 163 17.7 29.0 0.00 0.00 0.00 100
20260905134317 13 156 16.1 20.9 0.00 0.00 0.00 100
20260905134117 13 140 16.1 25.7 0.00 0.00 0.00 100
20260905133917 13 136 14.5 22.5 0.00 0.00 0.00 100
20260905133717 13 147 14.5 20.9 0.00 0.00 0.00 100
20260905133517 13 147 19.3 35.4 0.00 0.00 0.00 100
20260905133315 13 174 19.3 35.4 0.00 0.00 0.00 100
20260905133115 13 130 19.3 32.2 0.00 0.00 0.00 100
20260905132915 14 118 16.1 29.0 0.00 0.00 0.00 100
20260905132715 14 217 17.7 29.0 0.00 0.00 0.00 100
20260905132515 14 157 17.7 29.0 0.00 0.00 0.00 100
20260905132315 13 147 20.9 30.6 0.00 0.00 0.00 100
20260905132115 13 173 20.9 37.0 0.00 0.00 0.00 100
20260905131915 13 189 20.9 37.0 0.00 0.00 0.00 100
20260905131715 13 173 17.7 29.0 0.00 0.00 0.00 100
20260905131515 13 186 16.1 25.7 0.00 0.00 0.00 100
20260905131313 13 193 19.3 27.4 0.00 0.00 0.00 100
20260905131113 13 156 19.3 29.0 0.00 0.00 0.00 100
20260905130913 13 160 20.9 32.2 0.00 0.00 0.00 100
20260905130703 14 186 22.5 35.4 0.00 0.00 0.00 100
20260905130504 14 171 22.5 35.4 0.00 0.00 0.00 100
20260905130303 14 172 20.9 35.4 0.00 0.00 0.00 100
20260905125903 14 152 19.3 30.6 0.00 0.00 0.00 100
20260905125703 14 158 16.1 30.6 0.00 0.00 0.00 100
20260905125503 13 176 14.5 24.1 0.00 0.00 0.00 100
20260905125301 13 198 16.1 27.4 0.00 0.00 0.00 100
20260905125101 13 185 16.1 25.7 0.00 0.00 0.00 100
20260905124901 13 176 19.3 43.5 0.00 0.00 0.00 100
20260905124701 13 158 17.7 27.4 0.00 0.00 0.00 100
20260905124501 13 165 20.9 38.6 0.00 0.00 0.00 100
20260905124300 13 182 20.9 38.6 0.00 0.00 0.00 100
20260905124100 13 140 16.1 25.7 0.00 0.00 0.00 100
20260905123900 13 123 12.9 19.3 0.00 0.00 0.00 100
20260905123700 13 105 12.9 20.9 0.00 0.00 0.00 100
20260905123501 13 122 12.9 19.3 0.00 0.00 0.00 100
20260905123259 13 159 16.1 24.1 0.00 0.00 0.00 100
20260905123059 13 169 12.9 20.9 0.00 0.00 0.00 100
20260905122859 13 193 16.1 25.7 0.00 0.00 0.00 100
20260905122659 13 187 14.5 25.7 0.00 0.00 0.00 100
20260905122459 13 135 16.1 25.7 0.00 0.00 0.00 100
20260905122259 13 149 16.1 32.2 0.00 0.00 0.00 100
20260905122058 13 164 16.1 32.2 0.00 0.00 0.00 100
20260905121858 13 167 11.3 17.7 0.00 0.00 0.00 100
20260905121658 13 137 16.1 27.4 0.00 0.00 0.00 100
20260905121458 13 138 24.1 35.4 0.00 0.00 0.00 100
20260905121256 13 141 22.5 32.2 0.00 0.00 0.00 100
20260905121056 14 169 14.5 27.4 0.00 0.00 0.00 100
20260905120856 14 145 12.9 29.0 0.00 0.00 0.00 100
20260905120656 14 180 12.9 22.5 0.00 0.00 0.00 100
20260905120500 14 167 12.9 22.5 0.00 0.00 0.00 100
20260905120256 13 138 17.7 27.4 0.00 0.00 0.00 100
20260905120056 13 169 20.9 30.6 0.00 0.00 0.00 100
20260905115856 13 180 16.1 30.6 0.00 0.00 0.00 100
20260905115656 13 135 14.5 22.5 0.00 0.00 0.00 100
20260905115456 13 168 19.3 27.4 0.00 0.00 0.00 100
20260905115254 13 175 20.9 27.4 0.00 0.00 0.00 100
20260905115054 13 147 16.1 22.5 0.00 0.00 0.00 100
20260905114854 13 209 11.3 22.5 0.00 0.00 0.00 100
20260905114654 12 216 12.9 20.9 0.00 0.00 0.00 100
20260905114454 12 149 14.5 19.3 0.00 0.00 0.00 100
20260905114255 13 201 16.1 25.7 0.00 0.00 0.00 100
20260905114055 13 186 20.9 29.0 0.00 0.00 0.00 100
20260905113855 13 211 20.9 29.0 0.00 0.00 0.00 100
20260905113655 13 200 16.1 25.7 0.00 0.00 0.00 100
20260905113455 13 168 11.3 20.9 0.00 0.00 0.00 100
20260905113253 13 158 14.5 22.5 0.00 0.00 0.00 100
20260905113053 13 195 14.5 22.5 0.00 0.00 0.00 100
20260905112853 13 215 14.5 19.3 0.00 0.00 0.00 100
20260905112653 13 182 14.5 24.1 0.00 0.00 0.00 100
20260905112453 13 151 12.9 24.1 0.00 0.00 0.00 100
20260905112253 13 249 17.7 30.6 0.00 0.00 0.00 100
20260905112053 13 149 22.5 30.6 0.00 0.00 0.00 100
20260905111853 13 118 17.7 32.2 0.00 0.00 0.00 100
20260905111653 13 130 19.3 32.2 0.00 0.00 0.00 100
20260905111453 13 193 22.5 38.6 0.00 0.00 0.00 100
20260905111251 13 187 19.3 29.0 0.00 0.00 0.00 100
20260905111051 13 156 20.9 41.8 0.00 0.00 0.00 100
20260905110851 13 149 16.1 25.7 0.00 0.00 0.00 100
20260905110651 13 238 16.1 29.0 0.00 0.00 0.00 100
20260905110451 13 208 14.5 20.9 0.00 0.00 0.00 100
20260905110249 13 180 12.9 22.5 0.00 0.00 0.00 100
20260905110049 13 177 11.3 14.5 0.00 0.00 0.00 100
20260905105849 13 142 12.9 20.9 0.00 0.00 0.00 100
20260905105649 13 220 12.9 20.9 0.00 0.00 0.00 100
20260905105449 12 225 11.3 17.7 0.00 0.00 0.00 100
20260905105247 12 236 12.9 25.7 0.00 0.00 0.00 100
20260905105047 12 173 12.9 24.1 0.00 0.00 0.00 100
20260905104847 12 170 17.7 25.7 0.00 0.00 0.00 100
20260905104647 12 177 19.3 25.7 0.00 0.00 0.00 100
20260905104447 12 200 14.5 24.1 0.00 0.00 0.00 100
20260905104247 12 163 12.9 22.5 0.00 0.00 0.00 100
20260905104047 12 210 12.9 20.9 0.00 0.00 0.00 100
20260905103847 12 169 12.9 24.1 0.00 0.00 0.00 100
20260905103647 12 153 9.7 24.1 0.00 0.00 0.00 100
20260905103447 12 120 11.3 16.1 0.00 0.00 0.00 100
20260905103236 12 162 16.1 25.7 0.00 0.00 0.00 100
20260905103036 12 162 12.9 24.1 0.00 0.00 0.00 100
20260905102836 12 172 16.1 25.7 0.00 0.00 0.00 100
20260905102636 12 170 17.7 32.2 0.00 0.00 0.00 100
20260905102436 12 174 22.5 37.0 0.00 0.00 0.00 100
20260905102235 12 197 20.9 29.0 0.00 0.00 0.00 100
20260905102035 12 192 16.1 27.4 0.00 0.00 0.00 100
20260905101835 12 167 16.1 24.1 0.00 0.00 0.00 100
20260905101635 11 144 19.3 24.1 0.00 0.00 0.00 100
20260905101435 11 162 17.7 25.7 0.00 0.00 0.00 100
20260905101233 11 171 19.3 32.2 0.00 0.00 0.00 100
20260905101033 11 157 20.9 32.2 0.00 0.00 0.00 100
20260905100833 11 144 17.7 27.4 0.00 0.00 0.00 100
20260905100633 11 178 17.7 27.4 0.00 0.00 0.00 100
20260905100434 12 201 17.7 30.6 0.00 0.00 0.00 100
20260905100233 12 225 20.9 32.2 0.00 0.00 0.00 100
20260905100033 12 209 19.3 32.2 0.00 0.00 0.00 100
20260905095833 12 180 16.1 25.7 0.00 0.00 0.00 100
20260905095633 12 149 11.3 19.3 0.00 0.00 0.00 100
20260905095433 11 153 16.1 35.4 0.00 0.00 0.00 100
20260905095231 11 183 19.3 35.4 0.00 0.00 0.00 100
20260905095031 11 187 19.3 33.8 0.00 0.00 0.00 100
20260905094831 11 184 19.3 27.4 0.00 0.00 0.00 100
20260905094631 11 172 17.7 32.2 0.00 0.00 0.00 100
20260905094431 11 174 22.5 32.2 0.00 0.00 0.00 100
20260905094230 11 198 22.5 29.0 0.00 0.00 0.00 100
20260905094030 11 207 20.9 29.0 0.00 0.00 0.00 100
20260905093830 11 189 20.9 30.6 0.00 0.00 0.00 100
20260905093631 12 171 19.3 27.4 0.00 0.00 0.00 100
20260905093430 12 182 22.5 30.6 0.00 0.00 0.00 100
20260905093229 12 155 16.1 24.1 0.00 0.00 0.00 100
20260905093029 12 168 16.1 24.1 0.00 0.00 0.00 100
20260905092829 11 178 17.7 25.7 0.00 0.00 0.00 100
20260905092629 11 211 22.5 35.4 0.00 0.00 0.00 100
20260905092429 11 226 20.9 35.4 0.00 0.00 0.00 100
20260905092229 11 198 20.9 33.8 0.00 0.00 0.00 100
20260905092028 11 221 20.9 33.8 0.00 0.00 0.00 100
20260905091828 11 182 19.3 27.4 0.00 0.00 0.00 100
20260905091628 11 173 19.3 25.7 0.00 0.00 0.00 100
20260905091428 11 188 17.7 25.7 0.00 0.00 0.00 100
20260905091226 11 192 19.3 32.2 0.00 0.00 0.00 100
20260905091026 11 157 16.1 32.2 0.00 0.00 0.00 100
20260905090826 11 122 16.1 22.5 0.00 0.00 0.00 100
20260905090626 11 154 17.7 25.7 0.00 0.00 0.00 100
20260905090426 11 170 17.7 27.4 0.00 0.00 0.00 100
20260905090227 11 177 17.7 27.4 0.00 0.00 0.00 100
20260905090026 11 184 19.3 27.4 0.00 0.00 0.00 100
20260905085826 10 178 20.9 27.4 0.00 0.00 0.00 100
20260905085626 10 163 16.1 20.9 0.00 0.00 0.00 100
20260905085426 10 198 17.7 27.4 0.00 0.00 0.00 100
20260905085224 10 155 17.7 27.4 0.00 0.00 0.00 100
20260905085024 10 109 14.5 24.1 0.00 0.00 0.00 100
20260905084824 10 139 17.7 32.2 0.00 0.00 0.00 100
20260905084624 10 156 17.7 32.2 0.00 0.00 0.00 100
20260905084424 10 116 16.1 19.3 0.00 0.00 0.00 100
20260905084224 10 158 14.5 20.9 0.00 0.00 0.00 100
20260905084024 10 149 12.9 22.5 0.00 0.00 0.00 100
20260905083823 10 152 16.1 24.1 0.00 0.00 0.00 100
20260905083624 9 141 14.5 20.9 0.00 0.00 0.00 100
20260905083424 9 139 12.9 20.9 0.00 0.00 0.00 100
20260905083222 9 161 12.9 22.5 0.00 0.00 0.00 100
20260905083022 9 161 14.5 20.9 0.00 0.00 0.00 100
20260905082826 9 147 16.1 20.9 0.00 0.00 0.00 100
20260905082622 9 144 17.7 27.4 0.00 0.00 0.00 100
20260905082422 9 186 19.3 35.4 0.00 0.00 0.00 100
20260905082222 9 196 16.1 22.5 0.00 0.00 0.00 100
20260905082022 9 192 19.3 25.7 0.00 0.00 0.00 100
20260905081822 9 189 16.1 22.5 0.00 0.00 0.00 100
20260905081622 9 168 17.7 29.0 0.00 0.00 0.00 100
20260905081422 9 157 17.7 29.0 0.00 0.00 0.00 100
20260905081220 9 163 17.7 25.7 0.00 0.00 0.00 100
20260905081020 9 131 17.7 24.1 0.00 0.00 0.00 100
20260905080820 9 174 19.3 29.0 0.00 0.00 0.00 100
20260905080620 9 167 20.9 29.0 0.00 0.00 0.00 100
20260905080420 9 160 20.9 25.7 0.00 0.00 0.00 100
20260905080220 9 165 19.3 29.0 0.00 0.00 0.00 100
20260905080020 9 187 19.3 30.6 0.00 0.00 0.00 100
20260905075820 9 209 17.7 30.6 0.00 0.00 0.00 100
20260905075612 9 148 17.7 27.4 0.00 0.00 0.00 100
20260905075412 9 153 17.7 25.7 0.00 0.00 0.00 100
20260905075210 9 166 17.7 25.7 0.00 0.00 0.00 100
20260905075010 9 180 14.5 22.5 0.00 0.00 0.00 100
20260905074810 9 185 16.1 22.5 0.00 0.00 0.00 100
20260905074610 9 194 16.1 25.7 0.00 0.00 0.00 100
20260905074410 8 184 17.7 32.2 0.00 0.00 0.00 100
20260905074210 8 207 19.3 32.2 0.00 0.00 0.00 100
20260905074010 8 145 19.3 27.4 0.00 0.00 0.00 100
20260905073810 8 136 16.1 20.9 0.00 0.00 0.00 100
20260905073610 8 140 16.1 24.1 0.00 0.00 0.00 100
20260905073410 8 139 16.1 25.7 0.00 0.00 0.00 100
20260905073208 8 138 16.1 24.1 0.00 0.00 0.00 100
20260905073008 8 179 16.1 24.1 0.00 0.00 0.00 100
20260905072808 8 167 16.1 22.5 0.00 0.00 0.00 100
20260905072608 8 127 16.1 22.5 0.00 0.00 0.00 100
20260905072408 8 170 16.1 25.7 0.00 0.00 0.00 100
20260905072208 8 186 19.3 29.0 0.00 0.00 0.00 100
20260905072008 8 179 19.3 29.0 0.00 0.00 0.00 100
20260905071808 8 146 17.7 25.7 0.00 0.00 0.00 100
20260905071608 8 183 19.3 25.7 0.00 0.00 0.00 100
20260905071407 8 197 17.7 25.7 0.00 0.00 0.00 100
20260905071205 8 206 17.7 24.1 0.00 0.00 0.00 100
20260905071005 8 227 19.3 30.6 0.00 0.00 0.00 100
20260905070805 9 198 16.1 24.1 0.00 0.00 0.00 100
20260905070605 9 190 16.1 22.5 0.00 0.00 0.00 100
20260905070405 9 172 17.7 27.4 0.00 0.00 0.00 100
20260905070205 9 176 19.3 27.4 0.00 0.00 0.00 100
20260905070006 9 173 17.7 33.8 0.00 0.00 0.00 100
20260905065806 9 146 16.1 29.0 0.00 0.00 0.00 100
20260905065606 9 166 16.1 22.5 0.00 0.00 0.00 100
20260905065406 9 177 16.1 20.9 0.00 0.00 0.00 100
20260905065203 9 171 16.1 20.9 0.00 0.00 0.00 100
20260905065001 9 150 17.7 27.4 0.00 0.00 0.00 100
20260905064801 9 164 17.7 27.4 0.00 0.00 0.00 100
20260905064601 9 186 17.7 29.0 0.00 0.00 0.00 100
20260905064401 9 187 17.7 29.0 0.00 0.00 0.00 100
20260905064200 9 154 16.1 25.7 0.00 0.00 0.00 100
20260905064001 9 162 16.1 25.7 0.00 0.00 0.00 100
20260905063801 9 180 16.1 22.5 0.00 0.00 0.00 100
20260905063601 9 196 16.1 24.1 0.00 0.00 0.00 100
20260905063401 9 180 12.9 20.9 0.00 0.00 0.00 100
20260905063159 9 230 16.1 29.0 0.00 0.00 0.00 100
20260905062959 10 175 17.7 35.4 0.00 0.00 0.00 100
20260905062759 10 121 16.1 22.5 0.00 0.00 0.00 100
20260905062559 10 126 16.1 22.5 0.00 0.00 0.00 100
20260905062359 10 155 16.1 22.5 0.00 0.00 0.00 100
20260905062159 10 162 16.1 24.1 0.00 0.00 0.00 100
20260905061958 10 199 17.7 27.4 0.00 0.00 0.00 100
20260905061758 10 174 16.1 22.5 0.00 0.00 0.00 100
20260905061558 10 184 16.1 27.4 0.00 0.00 0.00 100
20260905061358 10 140 16.1 22.5 0.00 0.00 0.00 100
20260905061156 10 161 17.7 27.4 0.00 0.00 0.00 100
20260905060956 10 144 17.7 25.7 0.00 0.00 0.00 100
20260905060757 10 164 17.7 27.4 0.00 0.00 0.00 100
20260905060556 10 158 17.7 24.1 0.00 0.00 0.00 100
20260905060356 10 172 20.9 30.6 0.00 0.00 0.00 100
20260905060156 10 198 22.5 35.4 0.00 0.00 0.00 100
20260905055956 10 205 20.9 45.1 0.00 0.00 0.00 100
20260905055756 10 187 20.9 45.1 0.00 0.00 0.00 100
20260905055556 10 193 20.9 30.6 0.00 0.00 0.00 100
20260905055356 10 204 22.5 27.4 0.00 0.00 0.00 100
20260905055154 10 204 19.3 27.4 0.00 0.00 0.00 100
20260905054954 10 213 17.7 27.4 0.00 0.00 0.00 100
20260905054754 10 169 17.7 25.7 0.00 0.00 0.00 100
20260905054554 10 133 12.9 25.7 0.00 0.00 0.00 100
20260905054354 10 177 14.5 29.0 0.00 0.00 0.00 100
20260905054154 10 184 12.9 22.5 0.00 0.00 0.00 100
20260905053954 10 147 12.9 17.7 0.00 0.00 0.00 100
20260905053753 10 178 12.9 20.9 0.00 0.00 0.00 100
20260905053554 10 173 12.9 19.3 0.00 0.00 0.00 100
20260905053354 10 170 14.5 24.1 0.00 0.00 0.00 100
20260905053152 10 176 14.5 24.1 0.00 0.00 0.00 100
20260905052952 10 205 14.5 22.5 0.00 0.00 0.00 100
20260905052752 10 234 12.9 19.3 0.00 0.00 0.00 100
20260905052552 10 180 11.3 19.3 0.00 0.00 0.00 100
20260905052352 10 255 9.7 16.1 0.00 0.00 0.00 100
20260905052143 10 199 8.0 16.1 0.00 0.00 0.00 100
20260905051943 11 183 9.7 16.1 0.00 0.00 0.00 100
20260905051743 11 216 9.7 16.1 0.00 0.00 0.00 100
20260905051543 11 225 6.4 11.3 0.00 0.00 0.00 100
20260905051343 11 258 8.0 16.1 0.00 0.00 0.00 100
20260905051141 11 284 9.7 29.0 0.00 0.00 0.00 100
20260905050941 11 224 4.8 9.7 0.00 0.00 0.00 100
20260905050741 11 290 3.2 9.7 0.00 0.00 0.00 100
20260905050540 11 340 6.4 16.1 0.00 0.00 0.00 100
20260905050340 11 267 8.0 16.1 0.00 0.00 0.00 100
20260905050140 11 197 11.3 19.3 0.00 0.00 0.00 100
20260905045940 11 195 14.5 27.4 0.00 0.00 0.00 100
20260905045740 11 150 12.9 19.3 0.00 0.00 0.00 100
20260905045540 11 184 16.1 22.5 0.00 0.00 0.00 100
20260905045340 11 183 16.1 20.9 0.00 0.00 0.00 100
20260905045138 11 150 12.9 19.3 0.00 0.00 0.00 100
20260905044938 11 206 11.3 17.7 0.00 0.00 0.00 100
20260905044740 11 219 11.3 17.7 0.00 0.00 0.00 100
20260905044538 11 204 11.3 14.5 0.00 0.00 0.00 100
20260905044338 11 238 8.0 14.5 0.00 0.00 0.00 100
20260905044138 11 215 6.4 14.5 0.00 0.00 0.00 100
20260905043938 11 263 8.0 12.9 0.00 0.00 0.00 100
20260905043738 11 235 9.7 17.7 0.00 0.00 0.00 100
20260905043538 11 213 9.7 19.3 0.00 0.00 0.00 100
20260905043338 11 174 11.3 16.1 0.00 0.00 0.00 100
20260905043136 11 222 12.9 22.5 0.00 0.00 0.00 100
20260905042936 11 193 9.7 19.3 0.00 0.00 0.00 100
20260905042736 11 183 9.7 16.1 0.00 0.00 0.00 100
20260905042536 11 205 9.7 16.1 0.00 0.00 0.00 100
20260905042335 11 211 8.0 12.9 0.00 0.00 0.00 100
20260905042135 11 267 9.7 19.3 0.00 0.00 0.00 100
20260905041935 11 235 9.7 19.3 0.00 0.00 0.00 100
20260905041735 11 237 9.7 19.3 0.00 0.00 0.00 100
20260905041535 11 245 9.7 16.1 0.00 0.00 0.00 100
20260905041335 11 255 9.7 14.5 0.00 0.00 0.00 100
20260905041134 11 212 8.0 16.1 0.00 0.00 0.00 100
20260905040934 11 196 9.7 16.1 0.00 0.00 0.00 100
20260905040734 11 182 14.5 19.3 0.00 0.00 0.00 100
20260905040534 11 201 17.7 25.7 0.00 0.00 0.00 100
20260905040334 11 152 19.3 27.4 0.00 0.00 0.00 100
20260905040133 11 196 17.7 24.1 0.00 0.00 0.00 100
20260905035933 11 200 16.1 29.0 0.00 0.00 0.00 100
20260905035733 11 198 17.7 27.4 0.00 0.00 0.00 100
20260905035533 11 213 14.5 20.9 0.00 0.00 0.00 100
20260905035333 11 249 12.9 24.1 0.00 0.00 0.00 100
20260905035131 11 198 14.5 24.1 0.00 0.00 0.00 100
20260905034931 11 202 12.9 19.3 0.00 0.00 0.00 100
20260905034731 11 205 11.3 16.1 0.00 0.00 0.00 100
20260905034531 11 220 8.0 14.5 0.00 0.00 0.00 100
20260905034331 11 240 9.7 12.9 0.00 0.00 0.00 100
20260905034131 11 219 6.4 9.7 0.00 0.00 0.00 100
20260905033931 11 52 4.8 8.0 0.00 0.00 0.00 100
20260905033731 11 321 4.8 9.7 0.00 0.00 0.00 100
20260905033531 11 229 6.4 12.9 0.00 0.00 0.00 100
20260905033331 11 252 4.8 9.7 0.00 0.00 0.00 100
20260905033129 11 275 6.4 11.3 0.00 0.00 0.00 100
20260905032929 11 252 6.4 9.7 0.00 0.00 0.00 100
20260905032729 11 265 6.4 16.1 0.00 0.00 0.00 100
20260905032529 11 270 3.2 6.4 0.00 0.00 0.00 100
20260905032329 11 282 6.4 12.9 0.00 0.00 0.00 100
20260905032129 11 224 8.0 12.9 0.00 0.00 0.00 100
20260905031928 11 270 6.4 12.9 0.00 0.00 0.00 100
20260905031728 11 283 6.4 12.9 0.00 0.00 0.00 100
20260905031528 11 278 6.4 12.9 0.00 0.00 0.00 100
20260905031328 11 247 6.4 12.9 0.00 0.00 0.00 100
20260905031126 11 253 6.4 9.7 0.00 0.00 0.00 100
20260905030926 11 238 6.4 9.7 0.00 0.00 0.00 100
20260905030726 11 204 6.4 12.9 0.00 0.00 0.00 100
20260905030526 11 239 6.4 12.9 0.00 0.00 0.00 100
20260905030326 11 244 6.4 9.7 0.00 0.00 0.00 100
20260905030127 11 290 8.0 14.5 0.00 0.00 0.00 100
20260905025926 11 286 9.7 17.7 0.00 0.00 0.00 100
20260905025726 11 270 9.7 17.7 0.00 0.00 0.00 100
20260905025526 11 284 8.0 16.1 0.00 0.00 0.00 100
20260905025326 11 203 9.7 17.7 0.00 0.00 0.00 100
20260905025124 11 195 8.0 17.7 0.00 0.00 0.00 100
20260905024924 11 261 11.3 17.7 0.00 0.00 0.00 100
20260905024725 11 245 8.0 17.7 0.00 0.00 0.00 100
20260905024517 11 274 6.4 9.7 0.00 0.00 0.00 100
20260905024317 11 265 8.0 14.5 0.00 0.00 0.00 100
20260905024115 11 201 9.7 16.1 0.00 0.00 0.00 100
20260905023915 11 218 12.9 22.5 0.00 0.00 0.00 100
20260905023715 11 240 12.9 25.7 0.00 0.00 0.00 100
20260905023515 11 252 9.7 25.7 0.00 0.00 0.00 100
20260905023315 11 258 8.0 16.1 0.00 0.00 0.00 100
20260905023113 11 277 9.7 16.1 0.00 0.00 0.00 100
20260905022913 11 270 6.4 9.7 0.00 0.00 0.00 100
20260905022713 11 323 4.8 12.9 0.00 0.00 0.00 100
20260905022513 11 280 6.4 17.7 0.00 0.00 0.00 100
20260905022313 11 270 9.7 17.7 0.00 0.00 0.00 100
20260905022113 11 171 11.3 17.7 0.00 0.00 0.00 100
20260905021913 11 168 12.9 20.9 0.00 0.00 0.00 100
20260905021713 11 195 14.5 20.9 0.00 0.00 0.00 100
20260905021513 11 206 9.7 17.7 0.00 0.00 0.00 100
20260905021313 11 244 9.7 16.1 0.00 0.00 0.00 100
20260905021111 11 255 9.7 17.7 0.00 0.00 0.00 100
20260905020911 11 243 8.0 20.9 0.00 0.00 0.00 100
20260905020711 11 242 8.0 20.9 0.00 0.00 0.00 100
20260905020510 11 324 4.8 9.7 0.00 0.00 0.00 100
20260905020310 11 270 4.8 9.7 0.00 0.00 0.00 100
20260905020110 11 248 6.4 9.7 0.00 0.00 0.00 100
20260905015910 11 262 6.4 9.7 0.00 0.00 0.00 100
20260905015710 11 202 4.8 9.7 0.00 0.00 0.00 100
20260905015510 11 356 3.2 9.7 0.00 0.00 0.00 100
20260905015310 11 21 3.2 9.7 0.00 0.00 0.00 100
20260905015108 11 253 4.8 12.9 0.00 0.00 0.00 100
20260905014908 11 289 6.4 12.9 0.00 0.00 0.00 100
20260905014708 11 267 4.8 9.7 0.00 0.00 0.00 100
20260905014508 11 247 6.4 14.5 0.00 0.00 0.00 100
20260905014308 11 273 4.8 14.5 0.00 0.00 0.00 100
20260905014108 11 263 3.2 6.4 0.00 0.00 0.00 100
20260905013908 11 336 3.2 9.7 0.00 0.00 0.00 100
20260905013708 11 326 4.8 9.7 0.00 0.00 0.00 100
20260905013508 11 311 6.4 9.7 0.00 0.00 0.00 100
20260905013308 11 354 8.0 17.7 0.00 0.00 0.00 100
20260905013106 11 11 6.4 17.7 0.00 0.00 0.00 100
20260905012906 11 25 8.0 12.9 0.00 0.00 0.00 100
20260905012706 11 350 6.4 12.9 0.00 0.00 0.00 100
20260905012506 11 0 6.4 9.7 0.00 0.00 0.00 100
20260905012306 11 19 6.4 12.9 0.00 0.00 0.00 100
20260905012105 11 37 6.4 12.9 0.00 0.00 0.00 100
20260905011905 11 26 3.2 8.0 0.00 0.00 0.00 100
20260905011705 11 55 8.0 19.3 0.00 0.00 0.00 100
20260905011506 11 42 8.0 19.3 0.00 0.00 0.00 100
20260905011306 11 34 9.7 22.5 0.00 0.00 0.00 100
20260905011104 11 54 12.9 24.1 0.00 0.00 0.00 100
20260905010904 12 43 12.9 25.7 0.00 0.00 0.00 100
20260905010704 12 34 11.3 25.7 0.00 0.00 0.00 100
20260905010504 12 38 9.7 16.1 0.00 0.00 0.00 100
20260905010304 12 36 11.3 24.1 0.00 0.00 0.00 100
20260905010103 12 41 16.1 24.1 0.00 0.00 0.00 100
20260905005903 12 30 14.5 25.7 0.00 0.00 0.00 100
20260905005703 12 28 14.5 22.5 0.00 0.00 0.00 100
20260905005503 12 32 14.5 24.1 0.00 0.00 0.00 100
20260905005306 12 33 14.5 24.1 0.00 0.00 0.00 100
20260905005101 12 23 9.7 14.5 0.00 0.00 0.00 100
20260905004901 12 13 11.3 17.7 0.00 0.00 0.00 100
20260905004701 12 357 9.7 16.1 0.00 0.00 0.00 100
20260905004501 12 40 14.5 24.1 0.00 0.00 0.00 100
20260905004301 12 54 14.5 24.1 0.00 0.00 0.00 100
20260905004101 12 34 14.5 24.1 0.00 0.00 0.00 100
20260905003901 12 40 16.1 24.1 0.00 0.00 0.00 100
20260905003701 12 38 14.5 22.5 0.00 0.00 0.00 100
20260905003501 12 28 12.9 19.3 0.00 0.00 0.00 100
20260905003301 12 10 11.3 19.3 0.00 0.00 0.00 100
20260905003059 12 0 14.5 24.1 0.00 0.00 0.00 100
20260905002859 12 30 14.5 24.1 0.00 0.00 0.00 100
20260905002659 12 36 9.7 17.7 0.00 0.00 0.00 100
20260905002459 12 48 12.9 19.3 0.00 0.00 0.00 100
20260905002259 13 56 12.9 19.3 0.00 0.00 0.00 100
20260905002059 13 44 11.3 19.3 0.00 0.00 0.00 100
20260905001859 13 58 9.7 17.7 0.00 0.00 0.00 100
20260905001659 13 49 12.9 22.5 0.00 0.00 0.00 100
20260905001459 13 38 12.9 22.5 0.00 0.00 0.00 100
20260905001259 13 29 11.3 16.1 0.00 0.00 0.00 100
20260905001048 13 22 11.3 20.9 0.00 0.00 0.00 100
20260905000848 13 29 14.5 22.5 0.00 0.00 0.00 100
20260905000648 13 29 12.9 20.9 0.00 0.00 0.00 100
20260905000448 13 14 11.3 16.1 0.00 0.00 0.00 100
20260905000248 13 25 11.3 19.3 0.00 0.00 0.00 100
20260905000048 13 342 14.5 24.1 0.00 0.00 0.00 100
20260904235847 13 0 14.5 22.5 0.00 0.00 0.00 100
20260904235647 13 6 16.1 25.7 0.00 0.00 0.00 100
20260904235447 13 23 16.1 25.7 0.00 0.00 0.00 100
20260904235247 13 358 16.1 22.5 0.00 0.00 0.00 100
20260904235045 13 39 17.7 27.4 0.00 0.00 0.00 100
20260904234846 13 19 14.5 27.4 0.00 0.00 0.00 100
20260904234646 13 29 12.9 17.7 0.00 0.00 0.00 100
20260904234446 13 16 12.9 19.3 0.00 0.00 0.00 100
20260904234246 13 35 14.5 19.3 0.00 0.00 0.00 100
20260904234046 13 40 12.9 19.3 0.00 0.00 0.00 100
20260904233846 13 352 14.5 17.7 0.00 0.00 0.00 100
20260904233645 13 46 16.1 22.5 0.00 0.00 0.00 100
20260904233445 13 46 16.1 22.5 0.00 0.00 0.00 100
20260904233245 13 26 12.9 20.9 0.00 0.00 0.00 100
20260904232843 14 40 16.1 32.2 0.00 0.00 0.00 100
20260904232643 14 357 16.1 32.2 0.00 0.00 0.00 100
20260904232443 14 7 16.1 25.7 0.00 0.00 0.00 100
20260904232243 15 4 19.3 30.6 0.00 0.00 0.00 100
20260904232043 15 17 16.1 29.0 0.00 0.00 0.00 100
20260904231843 15 21 17.7 25.7 0.00 0.00 0.00 100
20260904231642 15 21 16.1 25.7 0.00 0.00 0.00 100
20260904231442 15 16 12.9 20.9 0.00 0.00 0.00 100
20260904231242 15 36 12.9 20.9 0.00 0.00 0.00 100
20260904231041 15 0 14.5 22.5 0.00 0.00 0.00 100
20260904230841 15 353 16.1 29.0 0.00 0.00 0.00 100
20260904230641 15 20 12.9 29.0 0.00 0.00 0.00 100
20260904230441 16 336 9.7 16.1 0.00 0.00 0.00 100
20260904230241 16 308 12.9 19.3 0.00 0.00 0.00 100
20260904230041 17 304 12.9 25.7 0.00 0.00 0.00 100
20260904225841 17 307 9.7 19.3 0.00 0.00 0.00 100
20260904225641 17 291 12.9 19.3 0.00 0.00 0.00 100
20260904225440 18 306 9.7 17.7 0.00 0.00 0.00 100
20260904225240 18 228 14.5 33.8 0.00 0.00 0.00 100
20260904225038 18 202 20.9 40.2 0.00 0.00 0.00 100
20260904224838 18 180 17.7 40.2 0.00 0.00 0.00 100
20260904224638 18 222 12.9 27.4 0.00 0.00 0.00 100
20260904224438 18 123 16.1 25.7 0.00 0.00 0.00 100
20260904224238 18 166 20.9 37.0 0.00 0.00 0.00 100
20260904224038 18 131 17.7 33.8 0.00 0.00 0.00 100
20260904223838 18 138 19.3 27.4 0.00 0.00 0.00 100
20260904223638 18 163 20.9 32.2 0.00 0.00 0.00 100
20260904223438 18 162 20.9 32.2 0.00 0.00 0.00 100
20260904223238 18 141 22.5 33.8 0.00 0.00 0.00 100
20260904223036 18 118 19.3 32.2 0.00 0.00 0.00 100
20260904222834 18 125 19.3 25.7 0.00 0.00 0.00 100
20260904222634 18 172 24.1 43.5 0.00 0.00 0.00 100
20260904222434 18 146 20.9 35.4 0.00 0.00 0.00 100
20260904222233 18 136 20.9 30.6 0.00 0.00 0.00 100
20260904222033 18 110 19.3 29.0 0.00 0.00 0.00 100
20260904221833 18 136 19.3 37.0 0.00 0.00 0.00 100
20260904221633 18 129 20.9 32.2 0.00 0.00 0.00 100
20260904221433 18 128 25.7 38.6 0.00 0.00 0.00 100
20260904221233 18 154 20.9 32.2 0.00 0.00 0.00 100
20260904221031 18 152 19.3 25.7 0.00 0.00 0.00 100
20260904220832 18 123 17.7 25.7 0.00 0.00 0.00 100
20260904220632 18 115 19.3 33.8 0.00 0.00 0.00 100
20260904220432 18 113 19.3 27.4 0.00 0.00 0.00 100
20260904220231 18 130 17.7 24.1 0.00 0.00 0.00 100
20260904220031 18 105 17.7 27.4 0.00 0.00 0.00 100
20260904215831 18 109 19.3 32.2 0.00 0.00 0.00 100
20260904215631 18 129 19.3 29.0 0.00 0.00 0.00 100
20260904215431 18 147 20.9 29.0 0.00 0.00 0.00 100
20260904215231 18 148 20.9 29.0 0.00 0.00 0.00 100
20260904215029 18 113 19.3 29.0 0.00 0.00 0.00 100
20260904214829 18 144 19.3 33.8 0.00 0.00 0.00 100
20260904214629 18 174 19.3 33.8 0.00 0.00 0.00 100
20260904214429 18 150 20.9 33.8 0.00 0.00 0.00 100
20260904214229 18 160 20.9 35.4 0.00 0.00 0.00 100
20260904214029 18 187 25.7 37.0 0.00 0.00 0.00 100
20260904213829 18 163 25.7 37.0 0.00 0.00 0.00 100
20260904213630 18 178 25.7 35.4 0.00 0.00 0.00 100
20260904213422 18 167 19.3 32.2 0.00 0.00 0.00 100
20260904213222 18 132 19.3 32.2 0.00 0.00 0.00 100
20260904213020 18 151 22.5 32.2 0.00 0.00 0.00 100
20260904212820 18 150 20.9 30.6 0.00 0.00 0.00 100
20260904212620 18 153 22.5 35.4 0.00 0.00 0.00 100
20260904212420 18 152 25.7 40.2 0.00 0.00 0.00 100
20260904212220 18 178 22.5 40.2 0.00 0.00 0.00 100
20260904212020 18 128 16.1 35.4 0.00 0.00 0.00 100
20260904211820 18 147 19.3 37.0 0.00 0.00 0.00 100
20260904211620 18 156 22.5 37.0 0.00 0.00 0.00 100
20260904211420 18 119 20.9 33.8 0.00 0.00 0.00 100
20260904211220 18 151 22.5 32.2 0.00 0.00 0.00 100
20260904211018 18 160 20.9 32.2 0.00 0.00 0.00 100
20260904210818 18 135 19.3 30.6 0.00 0.00 0.00 100
20260904210618 18 136 20.9 40.2 0.00 0.00 0.00 100
20260904210418 18 116 17.7 25.7 0.00 0.00 0.00 100
20260904210218 18 119 19.3 32.2 0.00 0.00 0.00 100
20260904210018 18 103 19.3 32.2 0.00 0.00 0.00 100
20260904205817 18 133 22.5 37.0 0.00 0.00 0.00 100
20260904205617 18 160 24.1 38.6 0.00 0.00 0.00 100
20260904205417 18 165 20.9 35.4 0.00 0.00 0.00 100
20260904205217 18 135 20.9 35.4 0.00 0.00 0.00 100
20260904205015 18 139 20.9 30.6 0.00 0.00 0.00 100
20260904204815 18 124 19.3 33.8 0.00 0.00 0.00 100
20260904204615 18 141 19.3 27.4 0.00 0.00 0.00 100
20260904204415 18 151 22.5 33.8 0.00 0.00 0.00 100
20260904204215 18 122 20.9 37.0 0.00 0.00 0.00 100
20260904204015 18 143 22.5 38.6 0.00 0.00 0.00 100
20260904203816 18 167 22.5 38.6 0.00 0.00 0.00 100
20260904203615 18 166 22.5 41.8 0.00 0.00 0.00 100
20260904203415 18 159 22.5 37.0 0.00 0.00 0.00 100
20260904203215 18 150 20.9 30.6 0.00 0.00 0.00 100
20260904203013 18 168 24.1 41.8 0.00 0.00 0.00 100
20260904202813 18 164 22.5 41.8 0.00 0.00 0.00 100
20260904202613 18 153 22.5 37.0 0.00 0.00 0.00 100
20260904202413 18 158 22.5 38.6 0.00 0.00 0.00 100
20260904202213 18 172 22.5 37.0 0.00 0.00 0.00 100
20260904202013 18 158 25.7 37.0 0.00 0.00 0.00 100
20260904201813 18 135 22.5 32.2 0.00 0.00 0.00 100
20260904201613 18 136 17.7 27.4 0.00 0.00 0.00 100
20260904201413 18 131 17.7 33.8 0.00 0.00 0.00 100
20260904201213 18 146 19.3 30.6 0.00 0.00 0.00 100
20260904201011 18 161 24.1 41.8 0.00 0.00 0.00 100
20260904200811 18 154 24.1 35.4 0.00 0.00 0.00 100
20260904200611 18 186 24.1 43.5 0.00 0.00 0.00 100
20260904200411 17 171 22.5 33.8 0.00 0.00 0.00 100
20260904200211 17 158 19.3 30.6 0.00 0.00 0.00 100
20260904200011 18 147 19.3 30.6 0.00 0.00 0.00 100
20260904195811 17 128 22.5 37.0 0.00 0.00 0.00 100